| time (UTC) | temp F | wind direction | speed MPH | gust MPH | rain 1hr in | rain 24hr in | rain mn in | humidity % | barometer mb |
| 20260508011513 | 50 | 261 | 1.0 | 5.0 | 0.00 | 1.07 | 1.07 | 99 | 1001.7 |
| 20260508010012 | 51 | 186 | 2.0 | 7.0 | 0.00 | 1.07 | 1.07 | 99 | 1002.0 |
| 20260508004524 | 51 | 254 | 2.0 | 4.0 | 0.00 | 1.07 | 1.07 | 99 | 1001.9 |
| 20260508003009 | 51 | 229 | 1.0 | 6.0 | 0.00 | 1.07 | 1.07 | 99 | 1001.9 |
| 20260508001527 | 51 | 212 | 1.0 | 5.0 | 0.00 | 1.07 | 1.07 | 99 | 1002.1 |
| 20260508000009 | 51 | 230 | 2.0 | 5.0 | 0.00 | 1.07 | 1.07 | 99 | 1002.4 |
| 20260507234510 | 51 | 215 | 2.0 | 10.0 | 0.00 | 1.07 | 1.07 | 99 | 1002.2 |
| 20260507233008 | 51 | 156 | 3.0 | 8.0 | 0.00 | 1.07 | 1.07 | 99 | 1002.1 |
| 20260507231508 | 51 | 217 | 2.0 | 7.0 | 0.00 | 1.07 | 1.07 | 98 | 1002.4 |
| 20260507230008 | 51 | 188 | 4.0 | 9.0 | 0.00 | 1.07 | 1.07 | 98 | 1002.3 |
| 20260507224510 | 52 | 225 | 2.0 | 9.0 | 0.00 | 1.07 | 1.07 | 98 | 1002.7 |
| 20260507223006 | 52 | 190 | 3.0 | 11.0 | 0.00 | 1.07 | 1.07 | 99 | 1002.5 |
| 20260507221507 | 51 | 233 | 3.0 | 8.0 | 0.00 | 1.07 | 1.07 | 98 | 1002.9 |
| 20260507220005 | 51 | 237 | 3.0 | 9.0 | 0.01 | 1.07 | 1.07 | 99 | 1002.8 |
| 20260507214505 | 50 | 194 | 3.0 | 7.0 | 0.03 | 1.07 | 1.07 | 98 | 1002.8 |
| 20260507213005 | 50 | 265 | 3.0 | 10.0 | 0.09 | 1.07 | 1.07 | 98 | 1002.8 |
| 20260507211502 | 50 | 162 | 5.0 | 15.0 | 0.20 | 1.07 | 1.07 | 98 | 1001.7 |
| 20260507210111 | 50 | 136 | 7.0 | 13.0 | 0.27 | 1.06 | 1.06 | 98 | 1002.0 |
| 20260507204557 | 51 | 170 | 5.0 | 11.0 | 0.37 | 1.04 | 1.04 | 98 | 1003.0 |
| 20260507203117 | 52 | 164 | 5.0 | 15.0 | 0.46 | 0.98 | 0.98 | 98 | 1003.6 |
| 20260507201552 | 52 | 152 | 3.0 | 11.0 | 0.50 | 0.87 | 0.87 | 98 | 1003.9 |
| 20260507200050 | 51 | 149 | 4.0 | 9.0 | 0.49 | 0.80 | 0.80 | 97 | 1004.5 |
| 20260507194559 | 52 | 246 | 0.0 | 10.0 | 0.43 | 0.67 | 0.67 | 97 | 1004.8 |
| 20260507193045 | 52 | 204 | 3.0 | 10.0 | 0.34 | 0.50 | 0.50 | 98 | 1004.8 |
| 20260507191546 | 53 | 221 | 5.0 | 15.0 | 0.24 | 0.38 | 0.38 | 97 | 1004.8 |
| 20260507190053 | 53 | 182 | 7.0 | 16.0 | 0.19 | 0.31 | 0.31 | 97 | 1004.8 |
| 20260507184541 | 53 | 164 | 9.0 | 18.0 | 0.13 | 0.24 | 0.24 | 97 | 1004.9 |
| 20260507183039 | 53 | 161 | 8.0 | 18.0 | 0.06 | 0.17 | 0.17 | 96 | 1005.2 |
| 20260507181541 | 54 | 178 | 7.0 | 15.0 | 0.02 | 0.13 | 0.13 | 95 | 1004.9 |
| 20260507180042 | 55 | 166 | 8.0 | 18.0 | 0.01 | 0.12 | 0.12 | 94 | 1004.9 |
| 20260507174544 | 56 | 158 | 10.0 | 17.0 | 0.00 | 0.11 | 0.11 | 91 | 1004.8 |
| 20260507173058 | 56 | 198 | 7.0 | 19.0 | 0.00 | 0.11 | 0.11 | 92 | 1005.1 |
| 20260507171540 | 56 | 217 | 9.0 | 18.0 | 0.00 | 0.11 | 0.11 | 93 | 1005.4 |
| 20260507170038 | 55 | 177 | 10.0 | 19.0 | 0.00 | 0.11 | 0.11 | 92 | 1005.7 |
| 20260507164534 | 56 | 190 | 12.0 | 20.0 | 0.00 | 0.11 | 0.11 | 91 | 1006.1 |
| 20260507163029 | 57 | 194 | 7.0 | 20.0 | 0.00 | 0.11 | 0.11 | 91 | 1006.3 |
| 20260507161529 | 57 | 163 | 7.0 | 21.0 | 0.00 | 0.11 | 0.11 | 92 | 1007.1 |
| 20260507160025 | 57 | 113 | 6.0 | 16.0 | 0.00 | 0.11 | 0.11 | 93 | 1007.6 |
| 20260507154526 | 56 | 196 | 5.0 | 17.0 | 0.00 | 0.11 | 0.11 | 94 | 1007.8 |
| 20260507153020 | 56 | 176 | 6.0 | 20.0 | 0.00 | 0.11 | 0.11 | 94 | 1008.2 |
| 20260507151518 | 56 | 231 | 10.0 | 22.0 | 0.00 | 0.11 | 0.11 | 94 | 1008.6 |
| 20260507150027 | 56 | 186 | 7.0 | 13.0 | 0.00 | 0.11 | 0.11 | 94 | 1008.8 |
| 20260507144515 | 56 | 156 | 7.0 | 15.0 | 0.00 | 0.11 | 0.11 | 95 | 1009.0 |
| 20260507143013 | 56 | 196 | 5.0 | 11.0 | 0.00 | 0.11 | 0.11 | 95 | 1009.4 |
| 20260507141511 | 56 | 176 | 7.0 | 15.0 | 0.00 | 0.11 | 0.11 | 96 | 1010.0 |
| 20260507140009 | 55 | 198 | 8.0 | 17.0 | 0.00 | 0.11 | 0.11 | 97 | 1010.2 |
| 20260507134506 | 54 | 162 | 9.0 | 14.0 | 0.00 | 0.11 | 0.11 | 97 | 1010.1 |
| 20260507133006 | 54 | 197 | 6.0 | 27.0 | 0.00 | 0.11 | 0.11 | 97 | 1010.5 |
| 20260507131504 | 54 | 157 | 8.0 | 22.0 | 0.00 | 0.11 | 0.11 | 97 | 1010.4 |
| 20260507130003 | 54 | 188 | 9.0 | 18.0 | 0.01 | 0.11 | 0.11 | 97 | 1009.9 |
| 20260507124607 | 54 | 114 | 7.0 | 18.0 | 0.01 | 0.11 | 0.11 | 97 | 1010.2 |
| 20260507123059 | 54 | 149 | 8.0 | 16.0 | 0.01 | 0.11 | 0.11 | 98 | 1010.5 |
| 20260507121556 | 54 | 106 | 8.0 | 18.0 | 0.01 | 0.11 | 0.11 | 98 | 1011.0 |
| 20260507120055 | 54 | 174 | 8.0 | 15.0 | 0.00 | 0.10 | 0.10 | 98 | 1011.1 |
| 20260507114605 | 54 | 169 | 7.0 | 14.0 | 0.00 | 0.10 | 0.10 | 98 | 1011.9 |
| 20260507113052 | 53 | 105 | 8.0 | 18.0 | 0.00 | 0.10 | 0.10 | 98 | 1012.0 |
| 20260507111551 | 52 | 184 | 7.0 | 14.0 | 0.00 | 0.10 | 0.10 | 98 | 1012.2 |
| 20260507110048 | 52 | 119 | 7.0 | 18.0 | 0.00 | 0.10 | 0.10 | 98 | 1011.8 |
| 20260507104545 | 52 | 158 | 8.0 | 15.0 | 0.00 | 0.10 | 0.10 | 97 | 1011.8 |
| 20260507103048 | 53 | 153 | 8.0 | 16.0 | 0.01 | 0.10 | 0.10 | 97 | 1012.4 |
| 20260507101546 | 53 | 180 | 8.0 | 17.0 | 0.01 | 0.10 | 0.10 | 98 | 1012.3 |
| 20260507100041 | 54 | 158 | 8.0 | 18.0 | 0.02 | 0.10 | 0.10 | 98 | 1011.9 |
| 20260507094552 | 54 | 179 | 6.0 | 17.0 | 0.03 | 0.10 | 0.10 | 98 | 1012.4 |
| 20260507093038 | 54 | 203 | 6.0 | 11.0 | 0.06 | 0.09 | 0.09 | 98 | 1013.0 |
| 20260507091536 | 54 | 161 | 7.0 | 12.0 | 0.06 | 0.09 | 0.09 | 98 | 1012.7 |
| 20260507090034 | 53 | 181 | 5.0 | 14.0 | 0.06 | 0.08 | 0.08 | 98 | 1012.7 |
| 20260507084538 | 52 | 162 | 5.0 | 14.0 | 0.06 | 0.06 | 0.06 | 98 | 1012.9 |
| 20260507083031 | 52 | 138 | 5.0 | 10.0 | 0.04 | 0.04 | 0.04 | 98 | 1012.7 |
| 20260507081531 | 52 | 186 | 4.0 | 11.0 | 0.03 | 0.03 | 0.03 | 97 | 1013.0 |
| 20260507080026 | 53 | 138 | 4.0 | 10.0 | 0.02 | 0.02 | 0.02 | 97 | 1013.1 |
| 20260507074524 | 53 | 209 | 3.0 | 9.0 | 0.00 | 0.00 | 0.00 | 97 | 1013.8 |
| 20260507073022 | 53 | 203 | 5.0 | 14.0 | 0.00 | 0.00 | 0.00 | 97 | 1013.8 |
| 20260507071522 | 53 | 151 | 6.0 | 14.0 | 0.00 | 0.00 | 0.00 | 97 | 1014.0 |
| 20260507070033 | 54 | 205 | 4.0 | 14.0 | 0.00 | 0.00 | 0.00 | 97 | 1014.0 |
| 20260507064518 | 54 | 170 | 8.0 | 17.0 | 0.00 | 0.00 | 0.00 | 97 | 1013.9 |
| 20260507063016 | 54 | 164 | 6.0 | 13.0 | 0.00 | 0.00 | 0.00 | 97 | 1014.2 |
| 20260507061513 | 54 | 188 | 7.0 | 15.0 | 0.00 | 0.00 | 0.00 | 97 | 1014.4 |
| 20260507060013 | 53 | 213 | 6.0 | 15.0 | 0.00 | 0.00 | 0.00 | 97 | 1014.8 |
| 20260507054506 | 53 | 213 | 5.0 | 10.0 | 0.00 | 0.00 | 0.00 | 97 | 1014.9 |
| 20260507053005 | 53 | 187 | 3.0 | 11.0 | 0.00 | 0.00 | 0.00 | 97 | 1015.1 |
| 20260507051501 | 53 | 209 | 4.0 | 11.0 | 0.00 | 0.00 | 0.00 | 97 | 1015.5 |
| 20260507050058 | 53 | 190 | 3.0 | 9.0 | 0.00 | 0.00 | 0.00 | 97 | 1015.9 |
| 20260507044617 | 53 | 180 | 3.0 | 12.0 | 0.00 | 0.00 | 0.00 | 96 | 1016.1 |
| 20260507043055 | 53 | 158 | 4.0 | 10.0 | 0.00 | 0.00 | 0.00 | 96 | 1016.5 |
| 20260507041554 | 53 | 211 | 4.0 | 10.0 | 0.00 | 0.00 | 0.00 | 96 | 1016.6 |
| 20260507040050 | 53 | 181 | 5.0 | 10.0 | 0.00 | 0.00 | 0.00 | 96 | 1016.7 |
| 20260507034548 | 54 | 184 | 2.0 | 10.0 | 0.00 | 0.00 | 0.00 | 96 | 1016.9 |
| 20260507033058 | 54 | 203 | 3.0 | 11.0 | 0.00 | 0.00 | 0.00 | 96 | 1017.2 |
| 20260507031555 | 54 | 168 | 4.0 | 9.0 | 0.00 | 0.00 | 0.00 | 95 | 1017.3 |
| 20260507030100 | 54 | 181 | 2.0 | 12.0 | 0.00 | 0.00 | 0.00 | 95 | 1017.4 |
| 20260507024600 | 54 | 263 | 4.0 | 12.0 | 0.00 | 0.00 | 0.00 | 94 | 1017.4 |
| 20260507023038 | 54 | 184 | 4.0 | 12.0 | 0.00 | 0.00 | 0.00 | 93 | 1017.6 |
| 20260507021542 | 54 | 188 | 4.0 | 11.0 | 0.00 | 0.00 | 0.00 | 93 | 1017.7 |
| 20260507020051 | 55 | 239 | 7.0 | 13.0 | 0.00 | 0.00 | 0.00 | 93 | 1017.7 |
| 20260507014547 | 55 | 224 | 4.0 | 10.0 | 0.00 | 0.00 | 0.00 | 93 | 1017.9 |
| 20260507013040 | 55 | 265 | 4.0 | 14.0 | 0.00 | 0.00 | 0.00 | 93 | 1017.9 |